User: anonymous   Login
Location: Unspecified
(0.0000°N, 0.0000°E)
Time: 12:00:17
(UTC+00:00)
Language:

IGS 7A - Orbit

View from above orbital plane
View from above orbital plane
View from above satellite
View from above satellite

Ground track
Ground track

The orbit data is extracted from the following two-line orbital elements,

1 37954U 11075A   17264.86439130 0.00000000  00000-0  00000-0 0    09
2 37954  97.4423 338.8969 0003000 247.7585 112.2414 15.17639533    04
Epoch (UTC): 21 September 2017 20:44:43
Eccentricity: 0.0003000
inclination: 97.4423°
perigee height: 511 km
apogee height: 515 km
right ascension of ascending node: 338.8969°
argument of perigee: 247.7585°
revolutions per day: 15.17639533
mean anomaly at epoch: 112.2414°
orbit number at epoch: 0

The dashed part of the orbit path shows where the satellite is in the earth's shadow,  

DLR